Location: Poughquag
(41.6090°N, 73.6820°W)
Time: 20:02:06
(UTC-05:00)

ISS - Visible Passes

Search period start: 18 November 2019 00:00
Search period end: 28 November 2019 00:00
Orbit: 412 x 421 km, 51.6° (Epoch: 19 November)

Date Brightness Start Highest point End Pass type
(mag) Time Alt. Az. Time Alt. Az. Time Alt. Az.
20 Nov -1.7 18:39:29 10° SW 18:40:56 23° SSW 18:40:56 23° SSW visible
21 Nov -2.7 17:51:31 10° SSW 17:54:27 29° SE 17:54:52 28° ESE visible
22 Nov -1.8 17:03:59 10° S 17:06:13 17° SE 17:08:28 10° E visible
22 Nov -2.3 18:39:20 10° WSW 18:41:38 38° W 18:41:38 38° W visible
23 Nov -3.9 17:50:53 10° SW 17:54:14 83° SE 17:55:23 38° ENE visible
24 Nov -3.2 17:02:39 10° SSW 17:05:51 46° SE 17:09:03 10° ENE visible
24 Nov -1.8 18:39:46 10° W 18:41:58 25° NW 18:41:58 25° NW visible
25 Nov -2.8 17:50:59 10° W 17:54:10 40° NNW 17:55:33 26° NNE visible
26 Nov -3.5 17:02:21 10° WSW 17:05:40 63° NNW 17:09:01 10° NE visible
26 Nov -1.3 18:40:29 10° WNW 18:42:00 17° NW 18:42:00 17° NW visible
27 Nov -1.9 17:51:33 10° WNW 17:54:16 22° NNW 17:55:30 18° NNE visible
